星链-32419 (STARLINK-32419)

导读

STARLINK-32419是美国太空探索技术公司星链星座的组成卫星,于2024年10月23日发射入轨。星链项目旨在构建全球卫星互联网星座,为全球用户提供高速低延迟的宽带网络服务,该卫星承担着网络覆盖节点任务,助力完善星座规模,推进全球卫星互联网络的布局建设。

基本信息
目录编号:
61637
目录名称:
STARLINK-32419
国际标识:
2024-191S
轨道中心:
EARTH
卫星名称:
星链-32419
卫星全名:
星链-32419 (STARLINK-32419)
卫星状态:
在轨 (已飞行602 天)
发射日期:
2024-10-23 UTC
国别 :
美国 (US)
星等 :
--
轨道信息
数据来源 国际轨道数据 AOE轨道数据
星历时间 2026-06-17T00:17:52+0800
1天前
查看轨道信息
2026-06-15T09:00:00+0800
2天前
查看轨道信息
半长轴 6861.203km 6861.17km
偏心率 0.0001653 0.0001696
轨道倾角 43.007° 43.003°
近地点辐角 271.416° 265.585°
升交点赤经 315.629° 324.880°
平近点角 88.650° 79.416°
近地点 481.931km 481.869km
远地点 484.201km 484.197km
周期 94.267分钟 94.266分钟
每日圈数 15.275744 15.275857
详细信息
固有亮度:
5
最大亮度:
2.5
卫星平台:
Starlink V1.0
覆盖范围:
全球
运营商:
太空探索技术公司
运营商所在国:
美国
制造商(研发单位):
太空探索技术公司
制造商所在国:
美国
使用方式:
暂无
卫星简介
Starlink 计划是 SpaceX 推出的全球卫星互联网项目,通过发射低轨道卫星,为全球尤其是偏远地区提供高速、低延迟的互联网服务。自 2019 年起,Starlink 已部署数千颗卫星,旨在缩小全球数字鸿沟,推动互联网普及。该项目还为军事、航空等行业提供通信支持,带来广泛经济效益。
2D轨道图
3D轨道图
轨道高度分析图
轨道倾角分析图
轨道综合分析图
查看轨道综合分析图